Location: Ottawa
(45.4170°N, 75.7000°W)
Time: 03:07:24
(UTC-04:00)

Amateur Radio Satellites - All Passes

Search period start: 30 April 2017 02:37
Search period end: 01 May 2017 02:37
Location: Ottawa, 45.4170°N, 75.7000°W

Satellite Date Start Highest point End Downlink Frequencies (MHz)
Time Altitude Azimuth
NO-84 30 Apr 02:42:38 02:44:28 15° 231° (SW) 02:46:16 435.350 FM
NANOSAT C BR1 30 Apr 02:46:03 02:46:29 10° 302° (WNW) 02:46:56 145.865
Gurwin Techsat 1B 30 Apr 02:49:32 02:54:47 57° 101° (E) 03:00:00 435.225
AO-7 30 Apr 02:56:44 03:00:50 14° 86° (E) 03:04:53 .
PCSat 30 Apr 02:58:02 03:03:19 52° 308° (NW) 03:08:39 145.827
BEESAT 30 Apr 03:14:23 03:19:08 77° 257° (WSW) 03:23:55 436.000
CUBESAT XI-V 30 Apr 03:37:50 03:41:03 19° 62° (ENE) 03:44:19 437.345
YUBILEINY 30 Apr 03:39:35 03:47:19 38° 85° (E) 03:55:05 435.215
ITAMSAT 1 30 Apr 03:52:51 03:57:33 34° 97° (E) 04:02:13 435.822/435.867
KKS-1 30 Apr 03:58:08 04:01:59 29° 66° (ENE) 04:05:51 437.445
ITUPSAT 1 30 Apr 03:58:21 04:02:31 30° 264° (W) 04:06:43 437.325
Oscar 19 30 Apr 03:58:44 04:02:52 24° 298° (WNW) 04:06:58 437.125/150
MOZHAYETS 4 30 Apr 04:12:44 04:17:02 41° 262° (W) 04:21:23
STARS 30 Apr 04:19:48 04:23:13 22° 64° (ENE) 04:26:37 437.465
Gurwin Techsat 1B 30 Apr 04:30:17 04:34:20 23° 299° (WNW) 04:38:22 435.225
PCSat 30 Apr 04:45:15 04:48:01 14° 330° (NNW) 04:50:48 145.827
AO-7 30 Apr 04:46:44 04:55:03 71° 106° (ESE) 05:03:22 .
RS-15 30 Apr 05:01:40 05:07:06 14° 92° (E) 05:12:34 29.354- 29.394
CUBESAT XI-V 30 Apr 05:13:27 05:18:00 56° 260° (W) 05:22:39 437.345
ITAMSAT 1 30 Apr 05:32:21 05:36:59 34° 294° (WNW) 05:41:36 435.822/435.867
KKS-1 30 Apr 05:34:31 05:38:29 31° 264° (W) 05:42:28 437.445
YUBILEINY 30 Apr 05:35:26 05:43:51 52° 286° (WNW) 05:52:20 435.215
M-CUBED/EXP-1 PRIME 30 Apr 05:44:10 05:45:38 11° 51° (NE) 05:47:04 437.505
STRAND 1 30 Apr 05:46:36 05:47:59 11° 54° (NE) 05:49:23 437.568
STARS 30 Apr 05:55:09 05:59:19 40° 261° (W) 06:03:29 437.465
XW-2B 30 Apr 06:06:18 06:07:32 11° 89° (E) 06:08:45 145.730 - 145.750
SO-50 30 Apr 06:10:48 06:15:23 69° 123° (ESE) 06:19:55 436.795
XW-2C 30 Apr 06:17:25 06:19:46 16° 91° (E) 06:22:08 145.795 - 145.815
LilacSat-2 30 Apr 06:20:33 06:23:14 18° 92° (E) 06:25:55 437.200
NUDT-PHONESAT 30 Apr 06:39:09 06:42:04 21° 94° (E) 06:44:57 437.300
XW-2F 30 Apr 06:39:16 06:42:31 26° 95° (E) 06:45:46 145.980 - 146.000
AO-7 30 Apr 06:40:13 06:47:14 32° 306° (NW) 06:54:15 .
ISS 30 Apr 06:55:45 06:57:59 17° 135° (SE) 07:00:12 437.550
DOVE 4 30 Apr 06:58:34 07:03:09 73° 102° (ESE) 07:07:26 437.250
RS-15 30 Apr 07:05:02 07:16:47 62° 115° (ESE) 07:28:51 29.354- 29.394
CUTE-I 30 Apr 07:07:14 07:12:23 48° 99° (E) 07:17:30 437.470
M-CUBED/EXP-1 PRIME 30 Apr 07:14:36 07:19:14 71° 69° (ENE) 07:23:53 437.505
STRAND 1 30 Apr 07:21:11 07:26:15 71° 73° (ENE) 07:31:21 437.568
XW-2D 30 Apr 07:31:14 07:35:03 70° 284° (WNW) 07:38:51 145.860 - 145.880
HO-68 30 Apr 07:33:19 07:39:08 26° 92° (E) 07:44:56 435.675
XW-2B 30 Apr 07:38:19 07:42:06 59° 285° (WNW) 07:45:51 145.730 - 145.750
KAITUO 1B 30 Apr 07:38:26 07:42:12 74° 286° (WNW) 07:45:59 145.475/437.950
Tancredo 1 30 Apr 07:39:12 07:42:12 51° 145° (SE) 07:45:14 437.200
YUBILEINY 30 Apr 07:40:31 07:43:13 12° 312° (NW) 07:45:54 435.215
XW-2C 30 Apr 07:50:33 07:54:10 42° 288° (WNW) 07:57:47 145.795 - 145.815
SO-50 30 Apr 07:52:44 07:56:17 22° 323° (NW) 07:59:49 436.795
LilacSat-2 30 Apr 07:54:05 07:57:40 37° 289° (WNW) 08:01:14 437.200
NUDT-PHONESAT 30 Apr 08:12:44 08:16:00 29° 291° (WNW) 08:19:15 437.300
XW-2F 30 Apr 08:13:27 08:16:36 25° 292° (WNW) 08:19:44 145.980 - 146.000
UWE-3 30 Apr 08:14:02 08:16:01 13° 90° (E) 08:18:01 435.000/436.395/437.385
PCSat 30 Apr 08:18:59 08:20:27 11° 24° (NNE) 08:21:55 145.827
CUTE 1.7 + AOD 2 30 Apr 08:23:30 08:27:45 56° 100° (E) 08:31:58 437.475
ISS 30 Apr 08:30:51 08:34:07 76° 332° (NNW) 08:37:24 437.550
CUBEBUG 2 30 Apr 08:34:09 08:37:57 33° 97° (E) 08:41:50 437.445
SEEDS 30 Apr 08:35:56 08:40:06 50° 99° (E) 08:44:14 437.485
DOVE 4 30 Apr 08:37:55 08:40:10 14° 301° (WNW) 08:42:22 437.250
CUTE-I 30 Apr 08:47:50 08:52:09 26° 298° (WNW) 08:56:28 437.470
M-CUBED/EXP-1 PRIME 30 Apr 08:51:25 08:54:04 15° 265° (W) 08:56:43 437.505
PRISM 30 Apr 08:52:19 08:55:24 20° 64° (ENE) 08:58:31 437.425
O/OREOS (USA 219) 30 Apr 08:52:50 08:55:00 13° 98° (E) 08:57:09 437.305
XW-2A 30 Apr 08:53:24 08:56:42 54° 286° (WNW) 08:59:59 145.665 - 145.685
ZACube-1 30 Apr 08:59:18 09:02:43 23° 94° (E) 09:06:11 437.345
UNISAT 6 30 Apr 09:02:44 09:05:34 17° 63° (ENE) 09:08:22 437.425
STRAND 1 30 Apr 09:02:57 09:05:57 16° 270° (W) 09:08:58 437.568
AO-73 30 Apr 09:03:45 09:07:11 23° 94° (E) 09:10:40 145.935
FO-29 30 Apr 09:13:49 09:18:29 25° 63° (ENE) 09:22:49 435.910
Oscar 11 30 Apr 09:14:23 09:18:01 25° 94° (E) 09:21:38 .
Tancredo 1 30 Apr 09:15:19 09:18:12 34° 344° (NNW) 09:21:04 437.200
RS-15 30 Apr 09:17:53 09:29:45 53° 321° (NW) 09:41:49 29.354- 29.394
HO-68 30 Apr 09:20:16 09:27:25 68° 291° (WNW) 09:34:32 435.675
AAUSAT CUBESAT 2 30 Apr 09:31:50 09:36:03 82° 284° (WNW) 09:40:13 437.432
DELFI C3 30 Apr 09:41:13 09:43:18 14° 90° (E) 09:45:23 145.870
UWE-3 30 Apr 09:48:42 09:52:51 62° 287° (WNW) 09:57:06 435.000/436.395/437.385
PCSat 30 Apr 10:00:28 10:05:31 37° 48° (NE) 10:10:32 145.827
CUTE 1.7 + AOD 2 30 Apr 10:00:30 10:03:09 16° 297° (WNW) 10:05:48 437.475
ISS 30 Apr 10:08:05 10:10:58 28° 352° (N) 10:13:51 437.550
CUBEBUG 2 30 Apr 10:11:07 10:14:27 24° 293° (WNW) 10:17:49 437.445
SEEDS 30 Apr 10:12:35 10:15:25 18° 297° (WNW) 10:18:15 437.485
TIGRISAT 30 Apr 10:15:02 10:19:22 84° 75° (ENE) 10:23:40 435.000
PRISM 30 Apr 10:26:30 10:30:25 40° 261° (W) 10:34:23 437.425
O/OREOS (USA 219) 30 Apr 10:29:11 10:33:46 72° 295° (WNW) 10:38:25 437.305
NANOSAT C BR1 30 Apr 10:29:48 10:30:08 10° 58° (ENE) 10:30:28 145.865
ZACube-1 30 Apr 10:35:13 10:39:04 35° 291° (WNW) 10:42:59 437.345
UNISAT 6 30 Apr 10:37:41 10:41:55 51° 260° (W) 10:46:07 437.425
AO-73 30 Apr 10:39:38 10:43:29 34° 291° (WNW) 10:47:24 145.935
Oscar 11 30 Apr 10:50:17 10:54:11 33° 291° (WNW) 10:58:05 .
Tancredo 1 30 Apr 10:51:59 10:54:38 25° 4° (N) 10:57:17 437.200
DUCHIFAT 1 30 Apr 10:54:46 10:57:25 17° 63° (ENE) 11:00:06 145.980
OBJECT BX 30 Apr 10:55:15 10:58:56 72° 102° (ESE) 11:02:35 145.990 - 145.960
AIST 2D 30 Apr 10:55:44 10:58:46 29° 70° (ENE) 11:01:50 435.315
EO-79 30 Apr 10:57:05 11:00:15 21° 65° (ENE) 11:03:25 145.935-145.965
FO-29 30 Apr 10:57:25 11:03:21 53° 259° (W) 11:08:43 435.910
HO-68 30 Apr 11:09:50 11:13:52 16° 312° (NW) 11:17:54 435.675
DELFI C3 30 Apr 11:14:30 11:18:24 52° 287° (WNW) 11:22:16 145.870
ESTCUBE 1 30 Apr 11:16:45 11:18:19 12° 88° (E) 11:19:53 437.505/2401.250
RS-15 30 Apr 11:35:23 11:45:58 31° 353° (N) 11:56:28 29.354- 29.394
POLYITAN 1 30 Apr 11:36:30 11:40:34 52° 72° (ENE) 11:44:40 437.675
BUGSAT 1 30 Apr 11:40:03 11:42:39 17° 63° (ENE) 11:45:15 437.445
QB50P2 30 Apr 11:43:14 11:47:25 67° 74° (ENE) 11:51:37 145.880/145.840
PCSat 30 Apr 11:43:54 11:48:56 40° 247° (WSW) 11:53:56 145.827
ISS 30 Apr 11:45:05 11:48:03 31° 12° (NNE) 11:51:01 437.550
LO-87 30 Apr 11:45:41 11:49:01 36° 98° (E) 11:52:19 145.935 - 145.965
AO-85 30 Apr 11:51:01 11:54:59 38° 119° (ESE) 11:58:45 145.980
NANOSAT C BR1 30 Apr 12:00:56 12:05:08 88° 79° (E) 12:09:22 145.865
Oscar 19 30 Apr 12:01:34 12:04:16 14° 56° (ENE) 12:06:57 437.125/150
O/OREOS (USA 219) 30 Apr 12:12:28 12:14:05 12° 316° (NW) 12:15:41 437.305
Tancredo 1 30 Apr 12:27:55 12:30:58 54° 24° (NNE) 12:34:00 437.200
DUCHIFAT 1 30 Apr 12:28:38 12:32:43 51° 260° (W) 12:36:48 145.980
AIST 2D 30 Apr 12:29:35 12:32:02 18° 267° (W) 12:34:31 435.315
EO-79 30 Apr 12:31:50 12:35:47 39° 262° (W) 12:39:45 145.935-145.965
OBJECT BX 30 Apr 12:31:57 12:32:03 10° 299° (WNW) 12:32:10 145.990 - 145.960
Gurwin Techsat 1B 30 Apr 12:35:22 12:38:47 18° 58° (ENE) 12:42:14 435.225
VELOX 1 30 Apr 12:46:32 12:50:20 27° 95° (E) 12:54:04 145.980
ESTCUBE 1 30 Apr 12:51:07 12:55:42 79° 284° (WNW) 13:00:13 437.505/2401.250
SO-50 30 Apr 13:00:18 13:03:41 20° 36° (NE) 13:07:04 436.795
BEESAT 3 30 Apr 13:09:18 13:13:06 49° 120° (ESE) 13:16:59 437.485
BUGSAT 1 30 Apr 13:13:38 13:17:39 49° 260° (W) 13:21:38 437.445
POLYITAN 1 30 Apr 13:14:12 13:16:41 15° 269° (W) 13:19:10 437.675
SPROUT 30 Apr 13:17:13 13:21:24 54° 100° (E) 13:25:32 437.525
BEESAT 2 30 Apr 13:18:25 13:21:38 24° 114° (ESE) 13:24:54 435.950
LO-87 30 Apr 13:19:56 13:22:11 16° 295° (WNW) 13:24:25 145.935 - 145.965
ISS 30 Apr 13:21:31 13:24:47 76° 212° (SSW) 13:28:02 437.550
QB50P2 30 Apr 13:22:02 13:23:40 12° 271° (W) 13:25:17 145.880/145.840
DX 1 30 Apr 13:24:46 13:28:27 26° 95° (E) 13:32:05 434.975-435.025
50 SAT 30 Apr 13:25:25 13:28:43 38° 98° (E) 13:31:57 437.505
AO-85 30 Apr 13:31:54 13:35:27 26° 317° (NW) 13:38:52 145.980
Oscar 19 30 Apr 13:37:39 13:42:49 89° 71° (ENE) 13:48:04 437.125/150
ITAMSAT 1 30 Apr 13:38:25 13:39:24 11° 53° (NE) 13:40:24 435.822/435.867
YUBILEINY 30 Apr 13:46:35 13:53:01 22° 59° (ENE) 13:59:25 435.215
RS-15 30 Apr 13:51:31 14:02:57 40° 27° (NNE) 14:14:00 29.354- 29.394
AO-7 30 Apr 13:57:23 14:04:10 30° 52° (NE) 14:10:59 .
Tancredo 1 30 Apr 14:04:06 14:06:40 24° 221° (SW) 14:09:13 437.200
Gurwin Techsat 1B 30 Apr 14:12:49 14:18:07 76° 257° (WSW) 14:23:29 435.225
UKube-1 30 Apr 14:18:41 14:23:01 67° 103° (ESE) 14:27:18 .
VELOX 1 30 Apr 14:22:51 14:26:48 32° 292° (WNW) 14:30:42 145.980
ESTCUBE 1 30 Apr 14:30:54 14:31:41 10° 303° (WNW) 14:32:28 437.505/2401.250
SO-50 30 Apr 14:40:08 14:44:38 74° 237° (WSW) 14:49:08 436.795
BEESAT 3 30 Apr 14:47:47 14:50:56 22° 319° (NW) 14:54:08 437.485
SPROUT 30 Apr 14:54:14 14:56:53 16° 298° (WNW) 14:59:31 437.525
BEESAT 2 30 Apr 14:55:29 14:59:13 38° 313° (NW) 15:03:01 435.950
50 SAT 30 Apr 14:59:16 15:01:20 15° 295° (WNW) 15:03:23 437.505
ISS 30 Apr 14:59:37 15:00:46 11° 228° (SW) 15:01:54 437.550
DX 1 30 Apr 15:00:45 15:04:39 33° 292° (WNW) 15:08:32 434.975-435.025
ITAMSAT 1 30 Apr 15:12:46 15:17:53 65° 72° (ENE) 15:23:02 435.822/435.867
BEESAT 30 Apr 15:12:47 15:16:33 23° 94° (E) 15:20:18 436.000
Oscar 19 30 Apr 15:20:49 15:22:51 12° 273° (W) 15:24:54 437.125/150
YUBILEINY 30 Apr 15:42:20 15:51:10 88° 83° (E) 15:59:59 435.215
AO-7 30 Apr 15:47:57 15:56:14 76° 253° (WSW) 16:04:34 .
ITUPSAT 1 30 Apr 15:55:41 16:00:25 57° 101° (E) 16:05:07 437.325
UKube-1 30 Apr 15:56:11 15:58:31 14° 300° (WNW) 16:00:50 .
RS-15 30 Apr 16:04:48 16:17:11 90° 240° (WSW) 16:28:57 29.354- 29.394
MOZHAYETS 4 30 Apr 16:05:09 16:09:28 38° 97° (E) 16:13:47
DOVE 4 30 Apr 16:30:18 16:33:04 15° 59° (ENE) 16:35:47 437.250
BEESAT 30 Apr 16:49:59 16:54:30 44° 291° (WNW) 16:59:01 436.000
CUTE-I 30 Apr 16:54:05 16:57:11 16° 57° (ENE) 17:00:17 437.470
ITAMSAT 1 30 Apr 16:54:25 16:57:49 17° 269° (W) 17:01:13 435.822/435.867
XW-2C 30 Apr 17:02:15 17:03:26 11° 61° (ENE) 17:04:36 145.795 - 145.815
LilacSat-2 30 Apr 17:05:37 17:07:22 13° 62° (ENE) 17:09:08 437.200
CUBESAT XI-V 30 Apr 17:07:50 17:12:02 31° 95° (E) 17:16:13 437.345
NUDT-PHONESAT 30 Apr 17:21:32 17:23:30 14° 64° (ENE) 17:25:31 437.300
KKS-1 30 Apr 17:22:36 17:26:49 40° 98° (E) 17:30:59 437.445
XW-2F 30 Apr 17:22:50 17:25:24 18° 65° (ENE) 17:27:59 145.980 - 146.000
ITUPSAT 1 30 Apr 17:34:28 17:37:49 19° 299° (WNW) 17:41:12 437.325
YUBILEINY 30 Apr 17:40:48 17:46:45 21° 283° (WNW) 17:52:43 435.215
STARS 30 Apr 17:42:12 17:46:01 29° 96° (E) 17:49:48 437.465
MOZHAYETS 4 30 Apr 17:42:40 17:46:27 26° 295° (WNW) 17:50:15
AO-7 30 Apr 17:45:43 17:50:21 16° 273° (W) 17:55:01 .
NO-84 30 Apr 18:00:29 18:03:27 21° 132° (SE) 18:06:15 435.350 FM
DOVE 4 30 Apr 18:04:46 18:10:04 89° 262° (W) 18:15:12 437.250
HO-68 30 Apr 18:04:56 18:10:34 26° 56° (NE) 18:16:14 435.675
XW-2D 30 Apr 18:14:09 18:17:52 74° 76° (ENE) 18:21:38 145.860 - 145.880
RS-15 30 Apr 18:18:44 18:27:59 27° 260° (W) 18:36:58 29.354- 29.394
KAITUO 1B 30 Apr 18:20:08 18:23:48 67° 76° (ENE) 18:27:30 145.475/437.950
XW-2B 30 Apr 18:21:12 18:24:56 87° 77° (ENE) 18:28:43 145.730 - 145.750
CUTE-I 30 Apr 18:31:11 18:36:32 86° 256° (WSW) 18:41:54 437.470
XW-2C 30 Apr 18:33:23 18:37:06 65° 259° (W) 18:40:51 145.795 - 145.815
LilacSat-2 30 Apr 18:37:30 18:41:12 55° 260° (W) 18:44:56 437.200
AO-85 30 Apr 18:40:58 18:42:23 12° 31° (NNE) 18:43:49 145.980
CUBESAT XI-V 30 Apr 18:45:12 18:49:22 31° 293° (WNW) 18:53:30 437.345
NUDT-PHONESAT 30 Apr 18:53:31 18:57:03 46° 261° (W) 19:00:37 437.300
XW-2F 30 Apr 18:55:50 18:59:17 36° 262° (W) 19:02:47 145.980 - 146.000
O/OREOS (USA 219) 30 Apr 18:58:02 19:02:20 37° 58° (ENE) 19:06:34 437.305
KKS-1 30 Apr 18:59:41 19:03:08 22° 296° (WNW) 19:06:33 437.445
UWE-3 30 Apr 19:13:25 19:15:42 14° 62° (ENE) 19:17:58 435.000/436.395/437.385
CUTE 1.7 + AOD 2 30 Apr 19:17:53 19:21:59 51° 72° (ENE) 19:26:07 437.475
STARS 30 Apr 19:18:32 19:22:19 29° 293° (WNW) 19:26:05 437.465
XW-2A 30 Apr 19:26:22 19:29:41 63° 74° (ENE) 19:33:00 145.665 - 145.685
SEEDS 30 Apr 19:29:22 19:33:21 44° 72° (ENE) 19:37:23 437.485
STRAND 1 30 Apr 19:30:15 19:34:00 20° 92° (E) 19:37:42 437.568
CUBEBUG 2 30 Apr 19:34:13 19:38:08 36° 70° (ENE) 19:42:00 437.445
NO-84 30 Apr 19:37:08 19:40:48 58° 327° (NNW) 19:44:10 435.350 FM
DOVE 4 30 Apr 19:46:12 19:48:21 12° 273° (W) 19:50:29 437.250
BEESAT 3 30 Apr 19:47:59 19:49:31 12° 31° (NNE) 19:51:03 437.485
HO-68 30 Apr 19:50:31 19:57:39 74° 255° (WSW) 20:04:52 435.675
ZACube-1 30 Apr 19:57:24 20:00:42 23° 66° (ENE) 20:03:59 437.345
AO-73 30 Apr 20:01:32 20:04:49 23° 66° (ENE) 20:08:07 145.935
Oscar 11 30 Apr 20:11:14 20:14:47 26° 67° (ENE) 20:18:22 .
CUTE-I 30 Apr 20:15:29 20:17:21 12° 273° (W) 20:19:14 437.470
AO-85 30 Apr 20:19:37 20:23:34 62° 52° (NE) 20:27:38 145.980
AAUSAT CUBESAT 2 30 Apr 20:23:27 20:27:37 84° 76° (ENE) 20:31:50 437.432
M-CUBED/EXP-1 PRIME 30 Apr 20:26:24 20:30:06 33° 101° (E) 20:33:31 437.505
DELFI C3 30 Apr 20:29:39 20:31:08 12° 61° (ENE) 20:32:37 145.870
O/OREOS (USA 219) 30 Apr 20:37:48 20:41:33 25° 257° (WSW) 20:45:17 437.305
UWE-3 30 Apr 20:47:33 20:51:42 60° 259° (W) 20:55:50 435.000/436.395/437.385
CUTE 1.7 + AOD 2 30 Apr 20:55:32 20:58:07 16° 270° (W) 21:00:44 437.475
SEEDS 30 Apr 21:06:23 21:09:16 18° 269° (W) 21:12:10 437.485
STRAND 1 30 Apr 21:08:31 21:13:30 55° 289° (WNW) 21:18:29 437.568
CUBEBUG 2 30 Apr 21:11:33 21:14:52 22° 266° (W) 21:18:08 437.445
NO-84 30 Apr 21:16:21 21:18:51 18° 346° (NNW) 21:21:13 435.350 FM
BEESAT 3 30 Apr 21:23:57 21:27:57 59° 51° (NE) 21:31:54 437.485
ZACube-1 30 Apr 21:33:04 21:36:50 33° 264° (W) 21:40:36 437.345
BEESAT 2 30 Apr 21:33:21 21:37:03 32° 45° (NE) 21:40:43 435.950
OBJECT BX 30 Apr 21:34:56 21:38:21 40° 72° (ENE) 21:41:48 145.990 - 145.960
AO-73 30 Apr 21:37:10 21:40:55 33° 263° (W) 21:44:41 145.935
HO-68 30 Apr 21:43:19 21:46:35 13° 275° (W) 21:49:52 435.675
Oscar 11 30 Apr 21:46:56 21:50:48 32° 264° (W) 21:54:42 .
M-CUBED/EXP-1 PRIME 30 Apr 22:01:04 22:04:22 24° 301° (WNW) 22:07:28 437.505
DELFI C3 30 Apr 22:01:22 22:05:20 72° 258° (WSW) 22:09:22 145.870
AO-85 30 Apr 22:01:22 22:03:31 14° 248° (WSW) 22:05:42 145.980
FO-29 30 Apr 22:04:45 22:07:41 15° 90° (E) 22:10:43 435.910
TIGRISAT 30 Apr 22:05:26 22:07:48 14° 90° (E) 22:10:10 435.000
PRISM 30 Apr 22:05:53 22:09:11 22° 94° (E) 22:12:26 437.425
ESTCUBE 1 30 Apr 22:17:59 22:20:36 15° 60° (ENE) 22:23:12 437.505/2401.250
LO-87 30 Apr 22:24:05 22:26:56 22° 68° (ENE) 22:29:47 145.935 - 145.965
UNISAT 6 30 Apr 22:27:05 22:30:43 26° 95° (E) 22:34:23 437.425
NO-84 30 Apr 22:55:14 22:57:20 16° 8° (N) 22:59:19 435.350 FM
BEESAT 3 30 Apr 23:02:45 23:05:05 15° 249° (WSW) 23:07:25 437.485
OBJECT BX 30 Apr 23:10:10 23:12:15 15° 269° (W) 23:14:20 145.990 - 145.960
BEESAT 2 30 Apr 23:11:12 23:14:46 30° 244° (WSW) 23:18:18 435.950
TIGRISAT 30 Apr 23:40:37 23:44:51 58° 287° (WNW) 23:49:07 435.000
PRISM 30 Apr 23:40:45 23:44:32 34° 291° (WNW) 23:48:16 437.425
NANOSAT C BR1 30 Apr 23:44:59 23:46:32 12° 89° (E) 23:48:06 145.865
VELOX 1 30 Apr 23:45:35 23:49:32 32° 67° (ENE) 23:53:31 145.980
FO-29 30 Apr 23:48:06 23:53:21 76° 287° (WNW) 23:58:59 435.910
AIST 2D 30 Apr 23:51:31 23:54:34 26° 96° (E) 23:57:35 435.315
ESTCUBE 1 30 Apr 23:52:23 23:56:52 68° 258° (WSW) 00:01:24 437.505/2401.250
LO-87 30 Apr 23:57:09 00:00:16 27° 264° (W) 00:03:23 145.935 - 145.965
50 SAT 01 May 00:00:29 00:03:11 21° 67° (ENE) 00:05:54 437.505
UNISAT 6 01 May 00:03:38 00:07:27 32° 291° (WNW) 00:11:19 437.425
DUCHIFAT 1 01 May 00:10:52 00:14:00 20° 93° (E) 00:17:08 145.980
SPROUT 01 May 00:12:15 00:16:24 54° 72° (ENE) 00:20:34 437.525
EO-79 01 May 00:14:13 00:17:47 27° 95° (E) 00:21:21 145.935-145.965
DX 1 01 May 00:22:07 00:25:57 30° 67° (ENE) 00:29:48 434.975-435.025
NO-84 01 May 00:32:34 00:35:30 42° 29° (NNE) 00:38:17 435.350 FM
PCSat 01 May 00:45:48 00:49:33 19° 106° (ESE) 00:53:19 145.827
BUGSAT 1 01 May 00:53:45 00:56:36 18° 93° (E) 00:59:26 437.445
POLYITAN 1 01 May 00:54:29 00:58:43 74° 102° (ESE) 01:02:55 437.675
QB50P2 01 May 01:01:24 01:05:38 87° 284° (WNW) 01:09:51 145.880/145.840
UKube-1 01 May 01:14:47 01:19:06 74° 74° (ENE) 01:23:27 .
NANOSAT C BR1 01 May 01:18:32 01:22:43 67° 285° (WNW) 01:26:52 145.865
VELOX 1 01 May 01:22:10 01:25:59 28° 265° (W) 01:29:50 145.980
AIST 2D 01 May 01:24:56 01:27:39 21° 292° (WNW) 01:30:22 435.315
ITUPSAT 1 01 May 01:30:16 01:32:01 12° 56° (ENE) 01:33:46 437.325
50 SAT 01 May 01:33:02 01:36:00 26° 264° (W) 01:38:59 437.505
FO-29 01 May 01:35:57 01:37:40 12° 305° (NW) 01:39:24 435.910
DUCHIFAT 1 01 May 01:45:56 01:49:48 38° 290° (WNW) 01:53:40 145.980
Oscar 19 01 May 01:47:27 01:51:51 27° 94° (E) 01:56:11 437.125/150
EO-79 01 May 01:49:53 01:53:32 29° 292° (WNW) 01:57:11 145.935-145.965
SPROUT 01 May 01:50:07 01:52:38 15° 269° (W) 01:55:10 437.525
DX 1 01 May 01:58:19 02:02:06 28° 264° (W) 02:05:56 434.975-435.025
NO-84 01 May 02:10:34 02:12:46 20° 229° (SW) 02:14:56 435.350 FM
BEESAT 01 May 02:21:00 02:25:16 34° 67° (ENE) 02:29:32 436.000
Gurwin Techsat 1B 01 May 02:26:58 02:31:52 36° 97° (E) 02:36:44 435.225
BUGSAT 1 01 May 02:28:23 02:32:08 38° 290° (WNW) 02:35:51 437.445
POLYITAN 1 01 May 02:32:07 02:33:56 13° 300° (WNW) 02:35:44 437.675
